This is the latest recevied weather packets stored in our database for station/object W4UWO. If no packets are shown the sender has not sent any weather packets the latest 10 day(s).
| Time | Temp. | Humidity | Pressure | Rain* | Wind** | Luminosity | Snow |
|---|---|---|---|---|---|---|---|
| 1788163962 | 22.78° C | 92% | 1019.8 hPa | 0 mm | - | 0 W/m² | - |
| 1788163657 | 22.78° C | 92% | 1019.8 hPa | 0 mm | - | 0 W/m² | - |
| 1788163352 | 22.78° C | 92% | 1019.6 hPa | 0 mm | - | 0 W/m² | - |
| 1788163048 | 22.78° C | 91% | 1019.7 hPa | 0 mm | - | 0 W/m² | - |
| 1788162744 | 22.78° C | 90% | 1019.8 hPa | 0 mm | - | 0 W/m² | - |
| 1788162443 | 23.33° C | 90% | 1019.7 hPa | 0 mm | - | 0 W/m² | - |
| 1788162142 | 22.78° C | 91% | 1019.8 hPa | 0 mm | - | 0 W/m² | - |
| 1788161838 | 23.33° C | 90% | 1019.7 hPa | 0 mm | - | 0 W/m² | - |
| 1788161537 | 23.33° C | 90% | 1019.9 hPa | 0 mm | - | 0 W/m² | - |
| 1788161232 | 23.33° C | 89% | 1019.9 hPa | 0 mm | - | 0 W/m² | - |
| 1788160929 | 23.33° C | 88% | 1019.8 hPa | 0 mm | - | 0 W/m² | - |
| 1788160629 | 23.89° C | 87% | 1019.6 hPa | 0 mm | - | 0 W/m² | - |
| 1788160323 | 23.89° C | 87% | 1019.9 hPa | 0 mm | - | 0 W/m² | - |
| 1788160023 | 23.89° C | 88% | 1019.8 hPa | 0 mm | - | 0 W/m² | - |
| 1788159717 | 23.89° C | 88% | 1019.9 hPa | 0 mm | - | 0 W/m² | - |
| 1788159416 | 23.89° C | 87% | 1019.9 hPa | 0 mm | - | 0 W/m² | - |
| 1788159115 | 23.33° C | 88% | 1019.9 hPa | 0 mm | - | 0 W/m² | - |
| 1788158810 | 23.33° C | 89% | 1019.8 hPa | 0 mm | - | 0 W/m² | - |
| 1788158505 | 23.33° C | 89% | 1019.8 hPa | 0 mm | - | 0 W/m² | - |
| 1788158201 | 23.89° C | 88% | 1020 hPa | 0 mm | - | 0 W/m² | - |
| 1788157891 | 23.89° C | 88% | 1019.9 hPa | 0 mm | - | 0 W/m² | - |
| 1788157591 | 23.89° C | 88% | 1019.9 hPa | 0 mm | - | 0 W/m² | - |
| 1788157290 | 23.89° C | 87% | 1020 hPa | 0 mm | - | 0 W/m² | - |
| 1788156988 | 24.44° C | 87% | 1020 hPa | 0 mm | - | 0 W/m² | - |
| 1788156685 | 24.44° C | 86% | 1019.9 hPa | 0 mm | - | 0 W/m² | - |
* Rain latest hour (hover to see other rain measurements)
** Current wind speed in m/s (hover to see current wind gust speed)